EW5847 Weather Reports


time (UTC)temp
C
wind
direction
speed
KPH
gust
KPH
rain 1hr
cm
rain 24hr
cm
rain mn
cm
humidity
%
barometer
mb
20260507075710 10 302 0.0 0.0 0.00 0.79 0.10 92 1005.3
20260507075438 10 302 0.0 0.0 0.00 0.79 0.10 92 1005.6
20260507074701 10 301 0.0 0.0 0.00 0.79 0.10 92 1005.4
20260507074157 10 301 0.0 3.2 0.00 0.79 0.10 92 1005.3
20260507073649 10 301 0.0 3.2 0.00 0.79 0.10 91 1005.4
20260507073139 10 301 0.0 3.2 0.00 0.79 0.10 92 1005.2
20260507072637 10 301 0.0 3.2 0.00 0.79 0.10 91 1005.1
20260507072131 10 300 0.0 0.0 0.00 0.79 0.10 91 1005.1
20260507071625 10 300 0.0 0.0 0.00 0.79 0.10 92 1005.1
20260507071119 10 300 0.0 0.0 0.00 0.79 0.10 92 1004.9
20260507070609 10 300 0.0 0.0 0.00 0.79 0.10 92 1004.9
20260507070107 10 300 0.0 0.0 0.00 0.79 0.10 91 1004.9
20260507065601 10 300 0.0 0.0 0.00 0.79 0.10 91 1004.9
20260507065055 10 300 0.0 0.0 0.00 0.79 0.10 91 1005.0
20260507064549 10 300 0.0 0.0 0.00 0.79 0.10 91 1004.8
20260507064039 10 300 0.0 0.0 0.00 0.79 0.10 91 1004.8
20260507063537 10 300 0.0 0.0 0.00 0.79 0.10 91 1004.8
20260507063031 10 300 0.0 0.0 0.00 0.79 0.10 91 1004.7
20260507062525 10 300 0.0 0.0 0.00 0.79 0.10 91 1004.7
20260507062020 10 300 0.0 6.4 0.00 0.79 0.10 91 1004.6
20260507061509 10 300 0.0 6.4 0.00 0.79 0.10 92 1004.6
20260507061007 11 300 0.0 6.4 0.00 0.79 0.10 92 1004.6
20260507060457 11 300 0.0 6.4 0.00 0.79 0.10 92 1004.3
20260507055955 11 191 0.0 0.0 0.00 0.79 0.10 92 1004.3
20260507055449 11 191 0.0 0.0 0.00 0.79 0.10 92 1004.5
20260507054940 11 192 0.0 4.8 0.00 0.79 0.10 92 1004.5
20260507054437 11 192 0.0 4.8 0.00 0.79 0.10 92 1004.5
20260507054158 11 327 0.0 4.8 0.00 0.79 0.10 92 1004.5
20260507053425 11 310 0.0 1.6 0.00 0.79 0.10 93 1004.4
20260507052915 11 310 0.0 6.4 0.00 0.79 0.10 93 1004.2
20260507052413 11 310 0.0 6.4 0.00 0.79 0.10 92 1004.2
20260507051907 11 328 0.0 6.4 0.00 0.79 0.10 92 1004.5
20260507051401 11 330 1.6 8.0 0.00 0.79 0.10 92 1004.2
20260507050856 11 315 1.6 8.0 0.03 0.79 0.10 92 1004.2
20260507050617 11 318 0.0 8.0 0.08 0.79 0.10 92 1004.2
20260507045845 11 317 1.6 8.0 0.10 0.79 0.10 92 1004.2
20260507045336 11 296 1.6 8.0 0.13 0.79 0.10 92 1004.2
20260507045057 11 327 1.6 8.0 0.13 0.79 0.10 92 1003.9
20260507044319 11 340 1.6 8.0 0.13 0.79 0.10 92 1004.0
20260507043813 11 322 1.6 11.3 0.13 0.79 0.10 92 1003.8
20260507043314 11 317 3.2 11.3 0.13 0.79 0.10 91 1003.7
20260507042810 11 315 4.8 14.5 0.13 0.79 0.10 91 1003.7
20260507042310 11 5 4.8 14.5 0.13 0.79 0.10 91 1003.5
20260507041809 12 342 4.8 14.5 0.13 0.79 0.10 91 1003.5
20260507041309 12 339 4.8 14.5 0.13 0.79 0.10 91 1003.5
20260507040810 12 328 3.2 12.9 0.10 0.76 0.08 92 1003.7
20260507040309 12 32 3.2 11.3 0.05 0.71 0.03 93 1003.8
20260507035811 12 340 3.2 11.3 0.03 0.69 0.69 93 1003.8
20260507035309 12 300 3.2 11.3 0.00 0.66 0.66 93 1003.6
20260507034759 12 350 3.2 12.9 0.00 0.66 0.66 94 1003.5
20260507034257 12 281 3.2 11.3 0.00 0.66 0.66 94 1003.6
20260507033752 12 279 1.6 11.3 0.00 0.66 0.66 94 1003.5
20260507033241 12 286 0.0 11.3 0.00 0.66 0.66 94 1003.4
20260507032739 12 265 0.0 1.6 0.00 0.66 0.66 94 1003.4
20260507032233 12 257 0.0 0.0 0.00 0.66 0.66 94 1003.3
20260507031728 12 257 0.0 0.0 0.00 0.66 0.66 94 1003.2
20260507031217 12 257 0.0 0.0 0.00 0.66 0.66 94 1003.1
20260507030711 12 257 0.0 0.0 0.00 0.66 0.66 94 1003.2
20260507030209 12 257 0.0 0.0 0.00 0.66 0.66 94 1003.2
20260507025703 12 257 0.0 0.0 0.00 0.66 0.66 94 1003.3
20260507025156 12 257 0.0 0.0 0.00 0.66 0.66 94 1003.2
20260507024918 12 257 0.0 0.0 0.00 0.66 0.66 94 1003.3
20260507024413 12 257 0.0 0.0 0.00 0.66 0.66 94 1003.3
20260507023910 12 257 0.0 4.8 0.00 0.66 0.66 94 1003.3
20260507023133 12 257 0.0 4.8 0.00 0.66 0.66 94 1003.2
20260507022628 12 257 0.0 6.4 0.00 0.66 0.66 94 1003.3
20260507022117 12 257 0.0 6.4 0.00 0.66 0.66 94 1003.4
20260507021611 12 254 0.0 1.6 0.00 0.66 0.66 93 1003.5
20260507021109 12 252 0.0 4.8 0.00 0.66 0.66 93 1003.5
20260507020603 12 252 0.0 6.4 0.03 0.66 0.66 93 1003.6
20260507020056 12 250 1.6 6.4 0.03 0.66 0.66 93 1003.5
20260507015551 12 257 1.6 6.4 0.03 0.66 0.66 93 1003.6
20260507015042 12 257 0.0 6.4 0.03 0.66 0.66 93 1003.7
20260507014534 12 252 0.0 8.0 0.03 0.66 0.66 93 1003.7
20260507014033 12 252 1.6 8.0 0.03 0.66 0.66 93 1003.7
20260507013527 12 271 0.0 6.4 0.03 0.66 0.66 93 1003.8
20260507013021 12 274 0.0 8.0 0.03 0.66 0.66 93 1003.9
20260507012511 12 275 1.6 8.0 0.03 0.66 0.66 93 1003.8
20260507012236 12 269 1.6 8.0 0.03 0.66 0.66 93 1003.9
20260507011735 12 269 1.6 8.0 0.03 0.66 0.66 93 1003.8
20260507011236 12 279 1.6 6.4 0.03 0.66 0.66 93 1003.8
20260507010733 12 283 1.6 6.4 0.00 0.64 0.64 93 1003.9
20260507010003 12 279 1.6 9.7 0.00 0.64 0.64 93 1003.9
20260507005459 12 259 1.6 12.9 0.00 0.64 0.64 93 1004.0
20260507005000 12 211 1.6 12.9 0.00 0.64 0.64 93 1003.9
20260507004500 12 242 1.6 8.0 0.00 0.64 0.64 93 1004.0
20260507004003 12 192 1.6 6.4 0.00 0.64 0.64 93 1003.9
20260507003958 12 229 1.6 8.0 0.00 0.64 0.64 93 1003.9
20260507002957 12 215 1.6 9.7 0.00 0.64 0.64 93 1003.9
20260507002455 12 238 1.6 9.7 0.00 0.64 0.64 92 1004.0
20260507001957 12 208 1.6 14.5 0.00 0.64 0.64 92 1004.0
20260507001455 12 0 1.6 14.5 0.00 0.64 0.64 92 1004.0
20260507000953 12 273 1.6 8.0 0.00 0.64 0.64 92 1004.0
20260507000723 12 282 1.6 8.0 0.00 0.64 0.64 92 1004.0
20260506235950 12 240 1.6 17.7 0.00 0.64 0.64 92 1003.9
20260506235450 12 267 4.8 17.7 0.00 0.64 0.64 92 1003.9
20260506234951 12 293 4.8 17.7 0.00 0.64 0.64 92 1004.0
20260506234450 12 223 4.8 12.9 0.00 0.64 0.64 92 1003.9
20260506233943 12 159 4.8 14.5 0.00 0.64 0.64 92 1003.9
20260506233435 12 294 4.8 14.5 0.00 0.64 0.64 92 1003.9
20260506232923 12 290 3.2 14.5 0.00 0.64 0.64 92 1003.9
20260506232411 12 183 4.8 17.7 0.00 0.64 0.64 92 1003.9
20260506231900 12 290 4.8 17.7 0.00 0.64 0.64 92 1004.0
20260506231349 12 306 4.8 14.5 0.00 0.64 0.64 92 1004.1
20260506230836 12 257 6.4 27.4 0.00 0.64 0.64 92 1004.0
20260506230826 12 190 6.4 27.4 0.00 0.64 0.64 92 1004.1
20260506225814 12 317 4.8 17.7 0.00 0.64 0.64 91 1004.2
20260506225313 12 260 6.4 19.3 0.00 0.64 0.64 91 1004.1
20260506224815 12 248 4.8 19.3 0.00 0.64 0.64 92 1004.1
20260506224313 13 262 4.8 16.1 0.00 0.64 0.64 92 1004.2
20260506223813 12 226 4.8 16.1 0.00 0.64 0.64 92 1004.3
20260506223315 13 306 4.8 16.1 0.03 0.64 0.64 92 1004.4
20260506222815 13 202 6.4 19.3 0.03 0.64 0.64 92 1004.4
20260506222313 13 186 8.0 22.5 0.03 0.64 0.64 91 1004.4
20260506221815 13 278 6.4 22.5 0.03 0.64 0.64 91 1004.4
20260506221310 13 200 6.4 19.3 0.05 0.64 0.64 91 1004.5
20260506220810 13 202 6.4 16.1 0.05 0.64 0.64 91 1004.6
20260506220311 13 270 6.4 17.7 0.08 0.64 0.64 91 1004.6
20260506215811 13 266 6.4 19.3 0.08 0.64 0.64 91 1004.6
20260506215309 13 260 4.8 19.3 0.10 0.64 0.64 91 1004.6
20260506214810 13 221 3.2 16.1 0.13 0.64 0.64 91 1004.7
20260506214309 13 216 3.2 16.1 0.15 0.64 0.64 91 1004.7
20260506213809 13 302 3.2 22.5 0.18 0.64 0.64 91 1004.7
20260506213312 13 44 4.8 22.5 0.18 0.61 0.61 91 1004.8
20260506213036 13 74 6.4 22.5 0.18 0.61 0.61 91 1004.8
20260506212252 13 165 4.8 22.5 0.20 0.61 0.61 91 1004.9
20260506211740 13 185 3.2 12.9 0.20 0.61 0.61 91 1005.0
20260506211236 13 55 3.2 12.9 0.18 0.58 0.58 91 1005.0
20260506210729 13 177 3.2 14.5 0.18 0.58 0.58 91 1005.1
20260506210230 13 200 3.2 14.5 0.18 0.56 0.56 90 1005.2
20260506210003 13 335 3.2 12.9 0.18 0.56 0.56 90 1005.2
20260506205227 13 248 3.2 14.5 0.15 0.53 0.53 90 1005.2
20260506204729 13 209 1.6 14.5 0.13 0.51 0.51 90 1005.2
20260506204227 13 296 1.6 14.5 0.13 0.48 0.48 90 1005.2
20260506203727 13 275 0.0 14.5 0.10 0.46 0.46 90 1005.1
20260506203225 13 218 0.0 8.0 0.10 0.43 0.43 90 1005.1
20260506202958 13 239 0.0 3.2 0.28 0.43 0.43 90 1005.1
20260506202845 13 239 0.0 3.2 0.28 0.41 0.41 90 1005.0
20260506201724 13 187 0.0 3.2 0.28 0.41 0.41 90 1005.0
20260506201223 13 186 0.0 8.0 0.30 0.41 0.41 89 1004.9
20260506200722 13 144 0.0 8.0 0.33 0.41 0.41 89 1005.1
20260506200452 13 244 0.0 3.2 0.30 0.38 0.38 89 1005.2
20260506195719 13 245 0.0 3.2 0.33 0.38 0.38 89 1005.4
20260506195219 13 244 0.0 6.4 0.36 0.38 0.38 88 1005.2
20260506194717 13 243 0.0 6.4 0.36 0.38 0.38 88 1005.2
20260506194450 14 261 1.6 11.3 0.36 0.36 0.36 87 1005.5
20260506193716 14 212 1.6 11.3 0.36 0.36 0.36 86 1005.7
20260506193209 14 244 1.6 8.0 0.25 0.25 0.30 86 1006.0
20260506192655 14 227 1.6 8.0 0.15 0.15 0.15 85 1005.9
20260506192155 14 269 1.6 8.0 0.13 0.13 0.13 84 1005.7
20260506191650 14 263 1.6 8.0 0.10 0.10 0.10 84 1005.8
20260506191142 15 212 1.6 8.0 0.10 0.10 0.10 83 1005.7
20260506190632 15 273 3.2 9.7 0.08 0.08 0.08 82 1005.8
20260506190401 15 254 3.2 11.3 0.08 0.08 0.08 82 1005.9
20260506185625 15 252 4.8 19.3 0.05 0.05 0.05 80 1005.9
20260506185113 15 226 6.4 20.9 0.03 0.03 0.03 79 1006.0
20260506184613 15 250 6.4 20.9 0.03 0.03 0.03 77 1006.0
20260506184102 15 224 4.8 19.3 0.00 0.00 0.00 76 1005.9
20260506183600 16 273 6.4 19.3 0.00 0.00 0.00 75 1005.8
20260506183054 16 283 6.4 17.7 0.00 0.00 0.00 74 1005.7
20260506182545 16 257 6.4 17.7 0.00 0.00 0.00 73 1005.8
20260506182043 16 219 6.4 17.7 0.00 0.00 0.00 71 1005.6
20260506181804 16 184 4.8 17.7 0.00 0.00 0.00 70 1005.6
20260506181030 16 193 4.8 17.7 0.00 0.00 0.00 69 1005.6
20260506180525 17 210 4.8 17.7 0.00 0.00 0.00 68 1005.5
20260506180014 17 340 6.4 19.3 0.00 0.00 0.00 68 1005.6
20260506175513 17 188 3.2 19.3 0.00 0.00 0.00 67 1005.6
20260506175002 17 211 3.2 14.5 0.00 0.00 0.00 67 1005.6
20260506174500 17 298 4.8 14.5 0.00 0.00 0.00 68 1005.6
20260506173954 17 44 3.2 14.5 0.00 0.00 0.00 67 1005.6
20260506173450 18 234 3.2 14.5 0.00 0.00 0.00 67 1005.7
20260506172942 18 217 3.2 14.5 0.00 0.00 0.00 67 1005.7
20260506172432 18 128 4.8 22.5 0.00 0.00 0.00 69 1005.8
20260506171930 18 290 4.8 22.5 0.00 0.00 0.00 68 1005.9
20260506171425 18 324 3.2 16.1 0.00 0.00 0.00 69 1005.9
20260506170918 17 194 4.8 16.1 0.00 0.00 0.00 69 1006.0
20260506170645 18 207 3.2 16.1 0.00 0.00 0.00 68 1006.2
20260506165903 18 212 1.6 16.1 0.00 0.00 0.00 69 1006.1
20260506165401 18 296 3.2 16.1 0.00 0.00 0.00 69 1006.3
20260506164849 18 355 3.2 14.5 0.00 0.00 0.00 69 1006.4
20260506164348 18 109 0.0 11.3 0.00 0.00 0.00 71 1006.4
20260506164113 18 211 1.6 12.9 0.00 0.00 0.00 70 1006.5
20260506163332 18 156 0.0 12.9 0.00 0.00 0.00 69 1006.6
20260506162830 18 258 0.0 8.0 0.00 0.00 0.00 70 1006.7
20260506162320 18 267 0.0 8.0 0.00 0.00 0.00 70 1006.9
20260506162048 18 272 1.6 12.9 0.00 0.00 0.00 70 1007.0
20260506161312 18 86 3.2 12.9 0.00 0.00 0.00 69 1007.1
20260506160802 18 306 3.2 12.9 0.00 0.00 0.00 69 1007.2
20260506160300 18 263 3.2 12.9 0.00 0.00 0.00 70 1007.4
20260506155750 18 280 1.6 11.3 0.00 0.00 0.00 71 1007.5
20260506155248 17 266 0.0 6.4 0.00 0.00 0.00 71 1007.6
20260506155014 17 266 0.0 8.0 0.00 0.00 0.00 73 1007.6
20260506154504 17 74 0.0 8.0 0.00 0.00 0.00 72 1007.7
20260506153730 17 279 0.0 6.4 0.00 0.00 0.00 71 1007.7
20260506153225 17 239 1.6 8.0 0.00 0.00 0.00 71 1007.5
20260506152718 17 140 1.6 8.0 0.00 0.00 0.00 72 1007.6
20260506152439 17 254 1.6 9.7 0.00 0.00 0.00 71 1007.6
20260506151932 17 275 1.6 11.3 0.00 0.00 0.00 71 1007.8
20260506151433 17 348 0.0 3.2 0.00 0.00 0.00 71 1007.6
20260506151305 17 246 0.0 11.3 0.00 0.00 0.00 71 1007.8
20260506150148 17 355 0.0 6.4 0.00 0.00 0.00 71 1007.6
20260506145638 17 271 0.0 6.4 0.00 0.00 0.00 71 1007.6
20260506145131 17 271 0.0 8.0 0.00 0.00 0.00 72 1007.6
20260506144901 17 271 1.6 9.7 0.00 0.00 0.00 72 1007.5
20260506144125 17 248 1.6 9.7 0.00 0.00 0.00 71 1007.4
20260506143618 17 278 1.6 9.7 0.00 0.00 0.00 72 1007.4
20260506143112 17 62 0.0 9.7 0.00 0.00 0.00 72 1007.3
20260506142602 17 252 0.0 4.8 0.00 0.00 0.00 72 1007.3
20260506142055 17 234 0.0 6.4 0.00 0.00 0.00 71 1007.4
20260506141554 16 267 0.0 6.4 0.00 0.00 0.00 72 1007.5
20260506141046 16 150 0.0 6.4 0.00 0.00 0.00 73 1007.6
20260506140537 16 146 1.6 6.4 0.00 0.00 0.00 73 1007.7
20260506140034 16 223 0.0 6.4 0.00 0.00 0.00 73 1007.8
20260506135527 16 263 0.0 4.8 0.00 0.00 0.00 74 1008.0
20260506135021 16 263 1.6 8.0 0.00 0.00 0.00 73 1008.0
20260506134517 16 269 1.6 8.0 0.00 0.00 0.00 73 1008.0
20260506134008 16 255 1.6 9.7 0.00 0.00 0.00 74 1008.0
20260506133458 16 255 1.6 9.7 0.00 0.00 0.00 74 1008.0
20260506133449 16 275 1.6 8.0 0.00 0.00 0.00 74 1008.0
20260506132448 16 238 1.6 8.0 0.00 0.00 0.00 74 1008.0
20260506132220 16 227 0.0 4.8 0.00 0.00 0.00 75 1007.8
20260506131448 16 250 0.0 4.8 0.00 0.00 0.00 75 1007.8
20260506130946 16 153 0.0 11.3 0.00 0.00 0.00 76 1007.7
20260506130449 16 259 1.6 11.3 0.00 0.00 0.00 76 1007.7
20260506125949 15 261 3.2 11.3 0.00 0.00 0.00 75 1007.7
20260506125447 15 253 1.6 11.3 0.00 0.00 0.00 76 1007.7
20260506124948 15 273 0.0 6.4 0.00 0.00 0.00 76 1007.7
20260506124444 15 234 0.0 6.4 0.00 0.00 0.00 77 1007.8
20260506124216 15 230 0.0 6.4 0.00 0.00 0.00 78 1007.8
20260506123444 15 230 0.0 6.4 0.00 0.00 0.00 79 1008.0
20260506122943 14 308 0.0 4.8 0.00 0.00 0.00 79 1008.0
20260506122444 14 283 0.0 3.2 0.00 0.00 0.00 80 1007.8
20260506122213 13 284 0.0 3.2 0.00 0.00 0.00 80 1008.0
20260506121444 13 284 0.0 3.2 0.00 0.00 0.00 80 1008.2
20260506120942 13 287 0.0 1.6 0.00 0.00 0.00 80 1008.3
20260506120444 13 288 0.0 0.0 0.00 0.00 0.00 81 1008.2
20260506120439 13 288 0.0 4.8 0.00 0.00 0.00 82 1008.4
20260506115425 13 288 0.0 4.8 0.00 0.00 0.00 82 1008.3
20260506114914 13 286 0.0 0.0 0.00 0.00 0.00 83 1008.3
20260506114634 12 286 0.0 0.0 0.00 0.00 0.00 83 1008.5
20260506113850 12 286 0.0 0.0 0.00 0.00 0.00 83 1008.5
20260506113340 12 286 0.0 0.0 0.00 0.00 0.00 84 1008.5
20260506112830 12 286 0.0 0.0 0.00 0.00 0.00 83 1008.6
20260506112319 12 286 0.0 0.0 0.00 0.00 0.00 83 1008.8
20260506111817 12 286 0.0 0.0 0.00 0.00 0.00 84 1008.4
20260506111312 12 286 0.0 1.6 0.00 0.00 0.00 83 1008.5
20260506110801 12 286 0.0 1.6 0.00 0.00 0.00 83 1008.7
20260506110257 11 283 0.0 4.8 0.00 0.00 0.00 83 1008.7
20260506105751 11 283 0.0 4.8 0.00 0.00 0.00 83 1008.5
20260506105242 11 283 0.0 4.8 0.00 0.00 0.00 83 1008.6
20260506104741 11 283 0.0 6.4 0.00 0.00 0.00 83 1008.6
20260506104235 11 283 1.6 6.4 0.00 0.00 0.00 83 1008.7
20260506103723 11 265 0.0 4.8 0.00 0.00 0.00 84 1008.6
20260506103455 11 261 0.0 4.8 0.00 0.00 0.00 83 1008.5
20260506102716 11 260 0.0 4.8 0.00 0.00 0.00 83 1008.3
20260506102706 11 283 0.0 1.6 0.00 0.00 0.00 83 1008.3
20260506101658 11 283 0.0 3.2 0.00 0.00 0.00 83 1008.4
20260506101158 11 283 0.0 3.2 0.00 0.00 0.00 82 1008.5
20260506100652 11 283 0.0 3.2 0.00 0.00 0.00 82 1008.4
20260506100145 11 283 0.0 3.2 0.00 0.00 0.00 81 1008.2
20260506095639 11 283 0.0 0.0 0.00 0.00 0.00 81 1008.2
20260506095129 11 283 0.0 0.0 0.00 0.00 0.00 81 1008.3
20260506094624 11 284 0.0 0.0 0.00 0.00 0.00 80 1008.4
20260506094118 11 284 0.0 0.0 0.00 0.00 0.00 79 1008.4
20260506093615 11 284 0.0 0.0 0.00 0.00 0.00 80 1008.3
20260506093105 11 284 0.0 0.0 0.00 0.00 0.00 79 1008.2
20260506092603 11 284 0.0 0.0 0.00 0.00 0.00 79 1008.2
20260506092053 11 284 0.0 0.0 0.00 0.00 0.00 78 1008.2
20260506091821 12 284 0.0 0.0 0.00 0.00 0.00 78 1008.2
20260506091044 12 284 0.0 0.0 0.00 0.00 0.00 77 1008.2
20260506090533 12 284 0.0 0.0 0.00 0.00 0.00 77 1008.2
20260506090027 12 284 0.0 0.0 0.00 0.00 0.00 77 1008.3
20260506085525 12 284 0.0 0.0 0.00 0.00 0.00 76 1008.3
20260506085247 12 284 0.0 0.0 0.00 0.00 0.00 76 1008.1
20260506085121 12 284 0.0 0.0 0.00 0.00 0.00 76 1008.3
20260506084004 12 284 0.0 0.0 0.00 0.00 0.00 75 1008.1
20260506083457 12 284 0.0 0.0 0.00 0.00 0.00 75 1008.0
20260506082955 12 284 0.0 4.8 0.00 0.00 0.00 75 1008.1
20260506082720 12 284 0.0 4.8 0.00 0.00 0.00 75 1007.8
20260506082214 13 284 0.0 4.8 0.00 0.00 0.00 76 1008.0
20260506081434 13 284 0.0 4.8 0.00 0.00 0.00 76 1008.0
20260506080932 13 285 0.0 6.4 0.00 0.00 0.00 75 1008.0
20260506080425 13 285 0.0 6.4 0.00 0.00 0.00 75 1008.0